ATLAS 5 CENTAUR DEB, 43958

Orbit data source: Space-Track

ATLAS 5 CENTAUR DEB, 43958 is space debris in HEO originally from a launch on Wed, 17 Sep 2014 UTC launched from the Air Force Eastern Test Range (AFETR). Debris objects in space refer to the collection of defunct objects orbiting the Earth. Examples of debris include non-operational satellites, rocket bodies, and fragments generated from explosions, collisions, or faulty payload assembly.

Loading next visibility...
Identifier
43958, 2014-055M
Orbit
HEO
Last TLE update
14 hours ago
Origin
Flag of USUnited Launch Alliance/Lockheed Martin (US)
Manufacturer
Unknown
Mission
Spacecraft
Bus & Motor
Unknown
Mass
Unknown
Launch date (UTC)
2014-09-17 (11 years ago)
Launch vehicle
Unknown
Launch site
Air Force Eastern Test Range (AFETR)
Object type
Payload
Rocket body
Debris
Shape & HBR
Unknown
Radar Cross Section
Small (<0.1 m²)

Expand to show TLE details & history

TLE from 14 hours ago
0 ATLAS 5 CENTAUR DEB
1 43958U 14055M   25181.70444358 -.00000042  00000-0  00000-0 0  9993
2 43958  19.8335 170.0010 4777004 119.6435 296.1584  1.89316185 47241
Epoch: 2025-06-30T16:54Z
TLE epoch observation values (Epoch: 2025-06-30T16:54:23.925Z)
Latitude
-0.00002°
Longitude
-2.63205°
Altitude
21,495.282 km
Speed
3.763 km/s
True Right ascension
11h 19m 54s
True Declination
0° 00' 00"
Sunlit
Object was in daylight at epoch
Visualization orbit readout
Latitude
15.56796°
Longitude
47.76877°
Altitude
11,618.006 km
Speed
5.465 km/s
Apparent Right ascension
13h 38m 21s
Apparent Declination
2° 47' 14"
Sunlit
Object is in daylight
Visualization observer readout
Local Sidereal Time
18:35:50
Azimuth
261.989° W
Elevation
13.744°
Doppler factor
1
Orbital elements
Apogee altitude
34,412.514 km
Perigee altitude
8,039.495 km
Semi-major axis
27,604.141 km
Eccentricity
0.4777
Inclination
19.8335°
RAAN
170.001°
Arg. of periapsis
119.6435°
True anomaly
Unknown
Mean anomaly
296.1584°
Eccentric anomaly
Unknown
Mean motion
0.47324 °/min
Orbital period
760.71 mins
BSTAR
0
Loading maneuver chart data...
Loading SW <> Apogee altitude chart data...

ATLAS 5 CENTAUR DEB Visibility forecast

Observer location: undefined°, undefined°

Span
Click to sort rows by Start time (UTC) header in descending order
Start Az.
Max El. time (UTC)
Max El. Az.
Max El.
End time (UTC)
End Az.
96 mins2025-07-01 06:57:57.739Z261.949° W2025-07-01 07:45:57.739Z194.694° SSW38.122°2025-07-01 08:33:57.739Z121.258° SE
|